Elkins, WV

1:23 PM EST on December 07, 2016 (GMT -0500)
Elkins-Randolph County

Weather History for KEKN - January, 2008

Change the Weather History Date:

Tuesday, January 1, 2008

  Actual Average Record
Temperature  
Mean Temperature 32 °F 29 °F  
Max Temperature 45 °F 39 °F 70 °F (1930)
Min Temperature 18 °F 20 °F -11 °F (1968)
Degree Days  
Heating Degree Days 33 36  
Month to date heating degree days 33 36  
Since 1 July heating degree days 1994 2327  
Cooling Degree Days 0 0  
Month to date cooling degree days 0 0  
Year to date cooling degree days 0 0  
Moisture  
Dew Point 22 °F    
Average Humidity 68    
Maximum Humidity 85    
Minimum Humidity 50    
Precipitation  
Precipitation 0.06 in 0.10 in 1.47 in (1919)
Month to date precipitation 0.06 0.10  
Year to date precipitation 0.06 0.10  
Snow  
Snow 2.30 in - - ()
Month to date snowfall 2.3  
Since 1 September snowfall 17.4  
Snow Depth 0.00 in    
Sea Level Pressure  
Sea Level Pressure 29.95 in    
Wind  
Wind Speed 14 mph (West)    
Max Wind Speed 26 mph    
Max Gust Speed 46 mph    
Visibility 3 miles    
Events Fog , Rain , Snow    
T = Trace of Precipitation, MM = Missing Value Source: NWS Daily Summary

Daily Weather History Graph

Daily Weather History Graph

Search for Another Location

Airport or City:

Trip Planner

Search our weather history database for the weather conditions in past years. The results will help you decide how hot, cold, wet, or windy it might be!

Date:

Astronomy

Jan. 01, 2008 Rise Set
Actual Time 7:37 AM EST 5:07 PM EST
Civil Twilight 7:08 AM EST 5:37 PM EST
Nautical Twilight 6:34 AM EST 6:11 PM EST
Astronomical Twilight 6:02 AM EST 6:43 PM EST
Moon 1:27 AM EST (1/1) 12:19 PM EST (1/1)
Length of Visible Light 10h 29m
Length of Day
9h 29m
Last Quarter, 37% of the Moon is Illuminated
Jan 1
Last Quarter
Jan 8
New
Jan 15
First Quarter
Jan 22
Full
Jan 30
Last Quarter

Hourly Weather History & Observations

Time (EST) Temp. Windchill Dew Point Humidity Pressure Visibility Wind Dir Wind Speed Gust Speed Precip Events Conditions
12:51 AM 41.0 °F 35.2 °F 25.0 °F 53% 29.87 in 10.0 mi SSW 9.2 mph 16.1 mph N/A   Overcast
1:51 AM 43.0 °F 36.8 °F 26.1 °F 51% 29.86 in 10.0 mi SW 11.5 mph 18.4 mph N/A   Overcast
2:51 AM 43.0 °F 36.4 °F 26.1 °F 51% 29.83 in 10.0 mi SSW 12.7 mph 21.9 mph 0.00 in   Overcast
3:51 AM 43.0 °F 35.4 °F 30.0 °F 60% 29.81 in 10.0 mi West 16.1 mph 24.2 mph 0.00 in Rain Light Rain
4:15 AM 39.2 °F 30.5 °F 33.8 °F 81% 29.81 in 6.0 mi WSW 16.1 mph 33.4 mph 0.00 in Rain Rain
4:37 AM 35.6 °F 24.8 °F 32.0 °F 87% 29.84 in 2.5 mi West 19.6 mph 46.0 mph 0.02 in Snow Light Snow
4:46 AM 35.6 °F 24.8 °F 30.2 °F 81% 29.85 in 4.0 mi West 19.6 mph 33.4 mph 0.04 in Snow Light Snow
4:51 AM 36.0 °F 26.3 °F 30.0 °F 79% 29.89 in 4.0 mi West 16.1 mph 29.9 mph 0.04 in Snow Light Snow
5:15 AM 35.6 °F 27.5 °F 28.4 °F 75% 29.83 in 9.0 mi SSW 11.5 mph 26.5 mph 0.00 in   Overcast
5:51 AM 37.0 °F 27.4 °F 27.0 °F 67% 29.91 in 10.0 mi WSW 17.3 mph 26.5 mph 0.00 in   Overcast
6:51 AM 35.1 °F 25.2 °F 25.0 °F 67% 29.94 in 10.0 mi SW 16.1 mph 34.5 mph N/A   Mostly Cloudy
7:51 AM 34.0 °F 25.0 °F 24.1 °F 67% 29.95 in 10.0 mi West 12.7 mph 20.7 mph N/A   Overcast
8:03 AM 33.8 °F 25.8 °F 24.8 °F 70% 29.89 in 7.0 mi West 10.4 mph 19.6 mph 0.00 in Snow Light Snow
8:28 AM 33.8 °F 23.9 °F 21.2 °F 60% 29.90 in 10.0 mi West 15.0 mph 24.2 mph 0.00 in   Overcast
8:51 AM 32.0 °F 21.2 °F 21.0 °F 64% 29.99 in 9.0 mi West 16.1 mph 28.8 mph 0.00 in   Overcast
9:12 AM 30.2 °F 21.9 °F 23.0 °F 75% 29.92 in 2.0 mi WSW 9.2 mph 18.4 mph 0.00 in Snow Light Snow
9:21 AM 30.2 °F 20.2 °F 21.2 °F 69% 29.92 in 3.0 mi WSW 12.7 mph 26.5 mph 0.00 in Snow Light Snow
9:28 AM 30.2 °F 20.8 °F 21.2 °F 69% 29.92 in 4.0 mi WSW 11.5 mph 24.2 mph 0.00 in Snow Light Snow
9:51 AM 30.0 °F 20.0 °F 21.9 °F 72% 30.01 in 2.5 mi WSW 12.7 mph 20.7 mph 0.00 in Snow Light Snow
9:59 AM 30.2 °F 20.8 °F 21.2 °F 69% 29.93 in 5.0 mi SW 11.5 mph 18.4 mph 0.00 in Snow Light Snow
10:51 AM 30.0 °F 21.1 °F 21.9 °F 72% 29.99 in 4.0 mi SW 10.4 mph - 0.00 in Snow Light Snow
11:04 AM 30.2 °F 21.3 °F 23.0 °F 75% 29.92 in 2.0 mi SW 10.4 mph - 0.00 in Snow Light Snow
11:16 AM 30.2 °F 23.4 °F 21.2 °F 69% 29.92 in 3.0 mi WSW 6.9 mph - 0.00 in Snow Light Snow
11:35 AM 30.2 °F 21.9 °F 23.0 °F 75% 29.92 in 2.0 mi WSW 9.2 mph - 0.00 in Snow Light Snow
11:51 AM 30.0 °F 21.7 °F 23.0 °F 75% 29.97 in 2.0 mi WSW 9.2 mph 16.1 mph 0.00 in Snow Light Snow
11:58 AM 30.2 °F 21.9 °F 23.0 °F 75% 29.91 in 1.5 mi WSW 9.2 mph 18.4 mph 0.00 in Snow Light Snow
12:07 PM 28.4 °F 19.7 °F 24.8 °F 86% 29.92 in 0.8 mi SW 9.2 mph - 0.00 in Snow Light Snow
12:24 PM 30.2 °F 22.6 °F 24.8 °F 80% 29.91 in 1.0 mi West 8.1 mph - 0.00 in Snow Light Snow
12:46 PM 30.2 °F 19.3 °F 24.8 °F 80% 29.91 in 1.8 mi West 15.0 mph 19.6 mph 0.00 in Snow Light Snow
12:51 PM 30.0 °F 20.5 °F 23.0 °F 75% 29.97 in 2.0 mi WSW 11.5 mph 20.7 mph 0.00 in Snow Light Snow
1:10 PM 28.4 °F 17.5 °F 24.8 °F 86% 29.91 in 1.2 mi West 13.8 mph 18.4 mph 0.00 in Snow Light Snow
1:17 PM 28.4 °F 18.5 °F 24.8 °F 86% 29.91 in 0.8 mi West 11.5 mph 18.4 mph 0.00 in Snow Light Snow
1:34 PM 28.4 °F 18.0 °F 24.8 °F 86% 29.92 in 0.2 mi West 12.7 mph - 0.00 in Fog , Snow Snow
1:46 PM 28.4 °F 16.6 °F 24.8 °F 86% 29.92 in 1.0 mi West 16.1 mph 21.9 mph 0.00 in Snow Light Snow
1:51 PM 28.9 °F 16.1 °F 23.0 °F 78% 29.98 in 1.0 mi WSW 19.6 mph 25.3 mph 0.00 in Snow Light Snow
1:56 PM 28.4 °F 16.2 °F 23.0 °F 80% 29.92 in 0.8 mi West 17.3 mph 25.3 mph 0.00 in Snow Light Snow
2:17 PM 28.4 °F 18.0 °F 24.8 °F 86% 29.92 in 0.5 mi West 12.7 mph 21.9 mph 0.00 in Snow Snow
2:24 PM 28.4 °F 17.0 °F 23.0 °F 80% 29.92 in 1.5 mi West 15.0 mph 24.2 mph 0.00 in Snow Light Snow
2:32 PM 28.4 °F 17.0 °F 23.0 °F 80% 29.92 in 2.5 mi West 15.0 mph 24.2 mph 0.00 in Snow Light Snow
2:39 PM 28.4 °F 16.6 °F 21.2 °F 74% 29.92 in 5.0 mi West 16.1 mph 31.1 mph 0.00 in Snow Light Snow
2:51 PM 28.9 °F 17.3 °F 21.9 °F 75% 29.99 in 6.0 mi West 16.1 mph 23.0 mph 0.00 in Snow Light Snow
3:05 PM 28.4 °F 17.5 °F 21.2 °F 74% 29.93 in 1.8 mi West 13.8 mph 25.3 mph 0.00 in Snow Light Snow
3:18 PM 28.4 °F 19.1 °F 23.0 °F 80% 29.93 in 0.5 mi West 10.4 mph 23.0 mph 0.00 in Snow Snow
3:25 PM 28.4 °F 18.0 °F 24.8 °F 86% 29.93 in 0.2 mi West 12.7 mph 23.0 mph 0.00 in Fog , Snow Snow
3:41 PM 28.4 °F 18.0 °F 21.2 °F 74% 29.94 in 1.0 mi West 12.7 mph 25.3 mph 0.00 in Snow Light Snow
3:48 PM 28.4 °F 17.5 °F 23.0 °F 80% 29.94 in 1.2 mi WNW 13.8 mph 21.9 mph 0.00 in Snow Light Snow
3:51 PM 28.0 °F 18.6 °F 23.0 °F 81% 29.99 in 1.2 mi West 10.4 mph 21.9 mph 0.00 in Snow Light Snow
4:01 PM 28.4 °F 19.7 °F 23.0 °F 80% 29.94 in 0.8 mi West 9.2 mph - 0.01 in Snow Light Snow
4:15 PM 26.6 °F 14.3 °F 23.0 °F 86% 29.95 in 0.2 mi West 16.1 mph 23.0 mph 0.01 in Fog , Snow Snow
4:31 PM 26.6 °F 15.2 °F 21.2 °F 80% 29.96 in 0.5 mi West 13.8 mph 20.7 mph 0.01 in Snow Snow
4:39 PM 26.6 °F 17.5 °F 23.0 °F 86% 29.96 in 0.2 mi West 9.2 mph - 0.01 in Fog , Snow Snow
4:43 PM 26.6 °F 16.8 °F 23.0 °F 86% 29.96 in 0.5 mi West 10.4 mph - 0.01 in Fog , Snow Snow
4:51 PM 26.1 °F 19.4 °F 23.0 °F 88% 30.04 in 0.5 mi Variable 5.8 mph - 0.01 in Fog , Snow Snow
5:18 PM 26.6 °F 17.5 °F 21.2 °F 80% 29.97 in 0.2 mi WNW 9.2 mph 19.6 mph 0.00 in Fog , Snow Heavy Snow
5:23 PM 24.8 °F 16.9 °F 23.0 °F 93% 29.97 in 0.5 mi WNW 6.9 mph 17.3 mph 0.00 in Fog , Snow Snow
5:31 PM 24.8 °F 14.0 °F 23.0 °F 93% 29.98 in 0.8 mi WNW 11.5 mph - 0.01 in Snow Light Snow
5:44 PM 26.6 °F 15.7 °F 21.2 °F 80% 29.98 in 1.0 mi WNW 12.7 mph 28.8 mph 0.01 in Snow Light Snow
5:51 PM 26.1 °F 16.2 °F 21.0 °F 81% 30.05 in 2.5 mi WNW 10.4 mph 18.4 mph 0.01 in Snow Light Snow
5:59 PM 26.6 °F 13.8 °F 19.4 °F 74% 29.99 in 3.0 mi WNW 17.3 mph 21.9 mph 0.00 in Snow Light Snow
6:12 PM 26.6 °F 16.2 °F 19.4 °F 74% 29.99 in 2.0 mi West 11.5 mph 25.3 mph 0.00 in Snow Light Snow
6:21 PM 26.6 °F 15.2 °F 19.4 °F 74% 29.98 in 1.8 mi West 13.8 mph 27.6 mph 0.00 in Snow Light Snow
6:41 PM 24.8 °F 14.0 °F 19.4 °F 80% 29.99 in 0.8 mi West 11.5 mph 27.6 mph 0.00 in Snow Light Snow
6:51 PM 24.1 °F 10.6 °F 18.0 °F 77% 30.07 in 1.8 mi West 17.3 mph 27.6 mph 0.00 in Snow Light Snow
6:58 PM 24.8 °F 12.4 °F 17.6 °F 74% 29.99 in 1.8 mi West 15.0 mph 26.5 mph 0.00 in Snow Light Snow
7:08 PM 24.8 °F 11.5 °F 17.6 °F 74% 29.99 in 3.0 mi WNW 17.3 mph 26.5 mph 0.00 in Snow Light Snow
7:23 PM 24.8 °F 13.4 °F 19.4 °F 80% 30.00 in 2.5 mi WNW 12.7 mph 23.0 mph 0.00 in Snow Light Snow
7:32 PM 24.8 °F 12.4 °F 19.4 °F 80% 30.00 in 1.0 mi WNW 15.0 mph 23.0 mph 0.00 in Snow Light Snow
7:51 PM 24.1 °F 10.6 °F 18.0 °F 77% 30.09 in 1.2 mi WNW 17.3 mph 29.9 mph 0.00 in Snow Light Snow
8:07 PM 23.0 °F 10.1 °F 15.8 °F 74% 30.01 in 2.5 mi WNW 15.0 mph 32.2 mph 0.00 in Snow Light Snow
8:25 PM 23.0 °F 9.6 °F 15.8 °F 74% 30.01 in 3.0 mi WNW 16.1 mph 24.2 mph 0.00 in Snow Light Snow
8:51 PM 23.0 °F 9.2 °F 16.0 °F 74% 30.09 in 2.5 mi WNW 17.3 mph 25.3 mph 0.00 in Snow Light Snow
9:18 PM 21.2 °F 8.9 °F 17.6 °F 86% 30.00 in 1.8 mi WNW 12.7 mph 18.4 mph 0.00 in Snow Light Snow
9:51 PM 21.0 °F 6.2 °F 15.1 °F 78% 30.09 in 0.8 mi WNW 18.4 mph 28.8 mph 0.00 in Snow Light Snow
10:01 PM 21.2 °F 6.8 °F 15.8 °F 80% 29.99 in 1.0 mi WNW 17.3 mph 25.3 mph 0.00 in Snow Light Snow
10:16 PM 19.4 °F 5.0 °F 14.0 °F 80% 29.99 in 1.0 mi WNW 16.1 mph 28.8 mph 0.00 in Snow Light Snow
10:51 PM 19.0 °F 3.6 °F 12.9 °F 77% 30.09 in 0.8 mi WNW 18.4 mph 34.5 mph 0.00 in Snow Light Snow
10:59 PM 19.4 °F 6.6 °F 14.0 °F 80% 30.00 in 1.0 mi WNW 12.7 mph - 0.00 in Snow Light Snow
11:19 PM 19.4 °F 3.6 °F 12.2 °F 74% 30.00 in 1.5 mi West 19.6 mph 31.1 mph 0.00 in Snow Light Snow
11:37 PM 19.4 °F 5.0 °F 12.2 °F 74% 30.00 in 2.0 mi WNW 16.1 mph 26.5 mph 0.00 in Snow Light Snow
11:41 PM 19.4 °F 7.9 °F 12.2 °F 74% 30.00 in 1.5 mi WNW 10.4 mph 25.3 mph 0.00 in Snow Light Snow
11:51 PM 18.0 °F 11.1 °F 12.9 °F 81% 30.10 in 0.8 mi Variable 4.6 mph - 0.00 in Snow Light Snow